Location: ????
(33.1659°N, 35.6604°E)
Time: 07:08:34
(UTC+00:00)

Cosmos 2218 Rocket - Pass Details

Date: 20 September 2019
Orbit: 955 x 1006 km, 82.9° (Epoch: 21 October)

Event Time Altitude Azimuth Distance (km) Brightness Sun altitude
Rises 17:55:01 0° 352° (N) 3,727 7.4 -28.9°
Reaches altitude 10° 17:57:34 10° 352° (N) 2,768 6.7 -29.4°
Maximum altitude 18:03:55 80° 266° (W) 1,005 4.0 -30.6°
Enters shadow 18:04:12 78° 230° (SW) 1,011 4.0 -30.7°
